Regional Weather Roundup
Issued by NWS Grand Forks, ND

Home | Current Version | Previous Version | Text Only | Print | Product List | Glossary On
Versions: 1 2 3 4 5 6 7 8 9 10 11 12 13 14 15 16 17 18 19 20 21 22 23 24 25 26 27 28 29 30 31 32 33 34 35 36 37 38 39 40 41 42 43 44 45 46 47 48 49 50
000
ASUS43 KFGF 190731
RWRFGF
PRAIRIE TO PINES  WEATHER ROUNDUP
NATIONAL WEATHER SERVICE EASTERN NORTH DAKOTA/GRAND FORKS ND
200 AM CDT SAT AUG 19 2017

 **SATELLITE DATA USED TO AUGMENT SKY COVER AT AUTOMATED STATIONS**
 *****  WEATHER ACROSS EASTERN NORTH DAKOTA  *****

CITY           SKY/WX    TMP DP  RH WIND       PRES   REMARKS
GRAND FORKS    FAIR      60  57  89 CALM      29.84S
GRAND FRKS AFB FAIR      56  54  94 W5        29.85F
DEVILS LAKE    FAIR      66  59  78 S6        29.87F
FARGO          FAIR      61  58  90 SW6       29.87F
WAHPETON ARPT  FAIR      57  54  88 S6        29.90F
$$

 ***** WEATHER ACROSS CENTRAL AND WESTERN NORTH DAKOTA  *****

CITY           SKY/WX    TMP DP  RH WIND       PRES   REMARKS
BISMARCK       FAIR      61  55  81 CALM      29.91S
MINOT          FAIR      67  52  58 S6        29.83F
JAMESTOWN      FAIR      58  54  86 S5        29.89F
MINOT AFB      FAIR      59  52  76 S7        29.82F
GARRISON         N/A     58  55  90 S7        29.87F
WILLISTON      FAIR      68  54  60 S7        29.82F
DICKINSON      FAIR      61  53  75 S10       29.88F
HETTINGER      FAIR      63  50  62 SE12      29.93F
$$

 *****  OTHER AIRPORT OBSERVATIONS IN OUR AREA  *****

CITY           SKY/WX    TMP DP  RH WIND       PRES   REMARKS
WALHALLA       FAIR      61  61 100 CALM      29.82F
GRAFTON AIRPOR FAIR      59  59 100 SW7       29.85S
VALLEY CITY AR   N/A     57  57 100 S7        29.91S
CANDO          FAIR      54  54 100 S5        29.87S
CAVALIER APRT  FAIR      57  54  88 CALM      29.82S
GWINNER        SUNNY     57  57 100 S7        29.91S
SHEYENNE NWR     N/A     58  58 100 SW2       29.95S
ROLLA          FAIR      54  54 100 SW5       29.85F
 ***** THE ABOVE OBSERVATIONS ARE NON NWS ARE NOT QUALITY
       CONTROLLED AND MAY MIS-REPORT RAIN FOR SNOW...
$$

  *****  WEATHER ACROSS NORTHERN MINNESOTA  *****

CITY           SKY/WX    TMP DP  RH WIND       PRES   REMARKS
FLAG ISLAND    FAIR      68  52  56 CALM      29.81S
WARROAD        FAIR      57  54  88 SW6       29.84S
ROSEAU         FAIR      55  52  88 S3        29.83F
HALLOCK        FAIR      54  52  94 SE6       29.83S
THF RVR FALLS  FAIR      59  56  89 SW5       29.87S
BAUDETTE       FAIR      55  54  96 CALM      29.83F
WASKISH        FAIR      63  61  94 SW3       29.86S
CROOKSTON      FAIR      55  54  94 S5        29.86F
STEPHEN NDAWN    N/A     55  54  94 S3          N/A
GREENBUSH NDAW   N/A     55  54  94 SW1         N/A
$$
  *****  WEATHER ACROSS CENTRAL AND WEST MINNESOTA  *****

CITY           SKY/WX    TMP DP  RH WIND       PRES   REMARKS
FOSSTON        FAIR      54  52  94 S5        29.89S
BEMIDJI        FAIR      59  56  89 SW5       29.88S
PARK RAPIDS    FAIR      55  53  93 W3        29.90F FOG
ELBOW LAKE     FAIR      57  57 100 S3        29.92F
WADENA         FAIR      55  55 100 SW3       29.92S FOG
DETROIT LAKES  FAIR      63  59  88 CALM      29.91F
MOORHEAD       FAIR      61  57  88 CALM      29.88F
FERGUS FALLS   FAIR      61  61 100 S5        29.91F
MORRIS MN      FAIR      57  57 100 W5        29.92S
STAPLES        FAIR      57  57 100 CALM      29.91F
$$
  *****  WEATHER ELSEWHERE ACROSS MINNESOTA  *****

CITY           SKY/WX    TMP DP  RH WIND       PRES   REMARKS
DULUTH         FAIR      57  57 100 W6        29.87F
INTRNTL FALLS  FAIR      58  55  90 SW6       29.83S
ELY            FAIR      57  57 100 CALM      29.85R
CLOQUET        FAIR      61  55  82 SW6       29.88S
WHEATON        FAIR      57  55  94 S7        29.93F
BRAINERD       FAIR      57  56  96 SW5       29.91F
HIBBING        FOG       50  50 100 CALM      29.86F VSB 1/4
ALEXANDRIA     FAIR      58  58 100 W5        29.94S FOG
SAINT CLOUD    FOG       55  55 100 CALM      29.91F VSB 1/2
MINNEAPOLIS    FAIR      62  58  86 CALM      29.92F
$$

  *****  WEATHER ACROSS SOUTH DAKOTA  *****

CITY           SKY/WX    TMP DP  RH WIND       PRES   REMARKS
SIOUX FALLS    FAIR      60  58  92 CALM      29.95F
BROOKINGS      FAIR      58  57  97 CALM      29.96F
WATERTOWN      FOG       54  54 100 CALM      29.93F VSB 1/4
HURON          FAIR      57  56  96 SW7       29.95S
SISSETON         N/A     59  57  93 S3        29.90F
ABERDEEN       FAIR      53  53 100 SW6       29.93F
MITCHELL       FAIR      59  58  96 SW6       29.96R
PIERRE         FAIR      63  56  78 SE9       29.94S
MOBRIDGE       FAIR      63  59  87 SE3       29.91F
RAPID CITY     FAIR      62  47  57 S9        29.97F
$$

  *****  SOME WEATHER IN NEARBY STATES *****

CITY           SKY/WX    TMP DP  RH WIND       PRES   REMARKS
GLASGOW MT     FAIR      66  39  37 E13       29.75F
GREAT FALLS MT FAIR      74  29  19 W13       29.90R
CHEYENNE WY    FAIR      62  42  47 S7        30.17F
SCOTTSBLUFF NE FAIR      62  51  67 E9        30.03F
OMAHA NE       FAIR      66  61  84 N7        29.94S
DES MOINES IA  MOCLDY    71  66  84 SE7       29.90R THUNDER
DAVENPORT IA   FAIR      62  60  93 NE6       29.94S
CHICAGO IL     FAIR      69  59  70 NW9       29.89S
EAU CLAIRE WI  FAIR      60  59  96 S3        29.91F FOG
LA CROSSE WI   FOG       64  62  93 SE5       29.92S VSB 3/4
$$

  *****  SOME NATIONAL WEATHER *****

CITY           SKY/WX    TMP DP  RH WIND       PRES   REMARKS
LA GUARDIA NY  MOCLDY    75  72  90 W9        29.77S
RALEIGH NC     MOCLDY    75  73  93 W3        29.93F
ATLANTA GA     FAIR      73  65  75 NW6       30.00F
NEW ORLEANS LA FAIR      81  78  91 SW6       29.99F
OKLAHOMA CITY  FAIR      73  71  93 S7        29.99F
ALBUQUERQUE NM MOCLDY    77  45  32 CALM      30.18R
SALT LAKE CITY FAIR      73  40  30 SE8       30.06R
LOS ANGELES CA MOCLDY    66  63  90 W8        29.96S
BOISE ID       FAIR      70  28  21 S5        29.99R
SEATTLE WA     MOCLDY    65  55  70 NE16      30.15S
$$

*** WEATHER ACROSS MANITOBA...SASKATCHEWAN AND ONTARIO ***
                ***ONTARIO***

CITY           SKY/WX    TMP DP  RH WIND       PRES   REMARKS
GERALDTON      MOCLDY    52  52 100 SW2       29.76S
THUNDER BAY    PTCLDY    57  57 100 W6        29.77F
SIOUX LOOKOUT  PTCLDY    54  54 100 S2        29.78R
TORONTO        MOCLDY    66  63  88 W12       29.79F
BIG TROUT LK   MOCLDY    59  54  82 W7        29.66F
PICKLE LAKE    NOT AVBL
DRYDEN         CLEAR     59  55  88 W8        29.79S
KENORA         CLEAR     66  52  59 W7        29.82S
$$
                *** MANITOBA***

CITY           SKY/WX    TMP DP  RH WIND       PRES   REMARKS
BRANDON        CLEAR     50  46  87 NW2       29.80F
DAUPHIN        CLEAR     57  52  82 SW6       29.75F
ISLAND LAKE    CLEAR     66  55  68 SW6       29.67F
PILOT MOUND      N/A     54  50  87 S5          N/A
THE PAS        CLEAR     63  54  72 VRB2      29.67S
THOMPSON       CLOUDY    55  54  94 E3        29.65S
WINNIPEG       CLEAR     61  52  72 SW5       29.79F
LYNN LAKE      PTCLDY    55  54  94 MISG      29.63F
CHURCHILL      CLOUDY    52  50  93 N14       29.63F
GILLAM         PTCLDY    61  57  88 NW12      29.62F
$$
                ***SASKATCHEWAN***

CITY           SKY/WX    TMP DP  RH WIND       PRES   REMARKS
ESTEVAN        PTCLDY    64  52  63 S9        29.79F
KINDERSLEY     PTCLDY    57  50  77 SE3       29.62F
LLOYDMINSTER   MOCLDY    55  50  82 NW16G29   29.77R
PRINCE ALBERT  CLEAR     54  50  87 E5        29.67F
REGINA         MOCLDY    61  45  55 SE13      29.72
YORKTON        CLEAR     59  52  77 S9        29.76S
N. BATTLEFORD  CLEAR     61  50  67 E12G17    29.63F
LA RONGE       MOCLDY    57  55  94 CALM      29.64F
SASKATOON      PTCLDY    66  48  52 E14       29.63F
SWIFT CURRENT  CLOUDY    66  41  39 S12       29.69S
$$
NOTE: THESE ARE AUTOMATED STATIONS WITH LIMITED QUALITY CONTROL
      "FAIR" INDICATES FEW OR NO CLOUDS BELOW 12,000 FEET WITH NO
      SIGNIFICANT WEATHER AND/OR OBSTRUCTIONS TO VISIBILITY.
      SKY/WX - SKY CONDITION AND SIGNIFICANT WEATHER.
      TMP - AIR TEMPERATURE.    DP   - DEWPOINT TEMPERATURE.
      RH  - RELATIVE HUMIDITY.  PRES - PRESSURE.
      HX  - HEAT INDEX.         WCI  - WIND CHILL INDEX.
$




USA.gov is the U.S. government's official web portal to all federal, state and local government web resources and services.